This demonstration page uses our WeatherBlox Daily Observations layout. Learn more.

Left ArrowRight Arrow

38.20091, -84.87328

Hourly Observations for July 31, 2019

Temp ( °F °C ) Dew Point ( °F °C ) Humidity (%) Winds ( mph kmh ) Pressure ( in mb ) Visibility ( mi km ) Precip ( " mm )
12:53 am 00:53 Clear with Mist and Fog 67 19.4 66 18.9 97 97 Calm 30.03 1017 6 10 0.00 0.00
1:35 am 01:35 Clear with Mist and Fog 66 18.9 65 18.3 96 96 SSW 3 6 30.02 1017 2 3 0.00 0.00
1:45 am 01:45 Clear with Mist and Fog 67 19.4 65 18.3 93 93 Calm 30.01 1016 3 5 0.00 0.00
1:53 am 01:53 Clear with Mist and Fog 67 19.4 65 18.3 93 93 WNW 3 6 30.01 1016 5 8 0.00 0.00
2:53 am 02:53 Clear with Mist and Fog 66 18.9 64 17.8 93 93 Calm 30.01 1016 5 8 0.00 0.00
3:09 am 03:09 Mostly Clear with Mist and Fog 66 18.9 64 17.8 93 93 Calm 30.01 1016 5 8 0.00 0.00
3:29 am 03:29 Mostly Clear with Mist and Fog 66 18.9 64 17.8 93 93 Calm 30.01 1016 3 4 0.00 0.00
3:38 am 03:38 Mostly Clear with Mist and Fog 65 18.3 64 17.8 97 97 Calm 30.02 1016 5 8 0.00 0.00
3:53 am 03:53 Mostly Clear with Mist and Fog 65 18.3 63 17.2 93 93 Calm 30.01 1016 5 8 0.00 0.00
3:58 am 03:58 Mostly Clear with Mist and Fog 65 18.3 64 17.8 97 97 Calm 30.02 1016 2 3 0.00 0.00
4:07 am 04:07 Mostly Clear with Mist and Fog 65 18.3 64 17.8 97 97 Calm 30.02 1016 3 5 0.00 0.00
4:27 am 04:27 Mostly Clear with Mist and Fog 65 18.3 64 17.8 97 97 Calm 30.02 1016 2 3 0.00 0.00
4:31 am 04:31 Mostly Cloudy with Mist and Fog 65 18.3 64 17.8 97 97 E 3 6 30.02 1016 1 1 0.00 0.00
4:38 am 04:38 Partly Cloudy with Mist and Fog 64 17.8 63 17.2 96 96 ESE 3 6 30.02 1016 1 2 0.00 0.00
4:44 am 04:44 Mostly Cloudy with Mist and Fog 65 18.3 64 17.8 97 97 Calm 30.02 1016 1 2 0.00 0.00
4:46 am 04:46 Mostly Cloudy with Mist and Fog 65 18.3 64 17.8 97 97 Calm 30.02 1016 1 1 0.00 0.00
4:53 am 04:53 Mostly Cloudy with Fog 65 18.3 64 17.8 97 97 Calm 30.01 1016 1 1 0.00 0.00
5:31 am 05:31 Mostly Cloudy with Mist and Fog 65 18.3 64 17.8 97 97 Calm 30.03 1017 1 2 0.00 0.00
5:34 am 05:34 Partly Cloudy with Mist and Fog 65 18.3 64 17.8 97 97 Calm 30.03 1017 2 2 0.00 0.00
5:42 am 05:42 Mostly Clear with Mist and Fog 64 17.8 63 17.2 96 96 Calm 30.03 1017 3 4 0.00 0.00
5:53 am 05:53 Mostly Clear with Mist and Fog 64 17.8 63 17.2 96 96 Calm 30.02 1017 3 5 0.00 0.00
6:07 am 06:07 Mostly Cloudy with Mist and Fog 64 17.8 63 17.2 96 96 Calm 30.04 1017 4 6 0.00 0.00
6:32 am 06:32 Cloudy 65 18.3 64 17.8 97 97 Calm 30.05 1017 9 14 0.00 0.00
6:53 am 06:53 Cloudy with Mist and Fog 66 18.9 65 18.3 96 96 Calm 30.05 1018 6 10 0.00 0.00
7:01 am 07:01 Cloudy 66 18.9 65 18.3 96 96 Calm 30.05 1018 7 11 0.00 0.00
7:11 am 07:11 Cloudy 67 19.4 65 18.3 93 93 Calm 30.05 1018 8 13 0.00 0.00
7:23 am 07:23 Cloudy 67 19.4 65 18.3 93 93 Calm 30.05 1018 7 11 0.00 0.00
7:46 am 07:46 Cloudy with Mist and Fog 68 20 66 18.9 93 93 SSW 3 6 30.06 1018 2 3 0.00 0.00
7:49 am 07:49 Cloudy with Mist and Fog 68 20 66 19 94 94 SW 3 6 30.06 1018 1 1 0.00 0.00
7:53 am 07:53 Cloudy with Fog 68 20 66 18.9 93 93 Calm 30.06 1018 1 1 0.00 0.00
8:05 am 08:05 Cloudy with Mist and Fog 68 20 67 19.4 96 96 Calm 30.06 1018 1 2 0.00 0.00
8:24 am 08:24 Cloudy with Mist and Fog 69 20.6 67 19.4 93 93 SSW 3 6 30.07 1018 1 1 0.00 0.00
8:53 am 08:53 Cloudy with Mist and Fog 69 20.6 67 19.4 93 93 Calm 30.07 1018 1 1 0.00 0.00
8:58 am 08:58 Cloudy with Mist and Fog 69 20.6 68 20 96 96 Calm 30.07 1018 1 2 0.00 0.00
9:21 am 09:21 Cloudy with Mist and Fog 70 21.1 68 20 93 93 Calm 30.08 1019 3 5 0.00 0.00
9:53 am 09:53 Cloudy with Mist and Fog 72 22.2 69 20.6 91 91 Calm 30.08 1019 6 10 0.00 0.00
10:21 am 10:21 Partly Cloudy 75 23.9 70 21.1 84 84 Calm 30.07 1018 9 14 0.00 0.00
10:53 am 10:53 Sunny 76 24.4 70 21.1 82 82 Calm 30.08 1019 10 16 0.00 0.00
11:53 am 11:53 Mostly Sunny 81 27.2 70 21.1 69 69 Calm 30.08 1019 10 16 0.00 0.00
12:30 pm 12:30 Mostly Cloudy 81 27.2 70 21.1 69 69 VRB 5 7 30.06 1018 9 14 0.00 0.00
12:53 pm 12:53 Mostly Cloudy 82 27.8 70 21.1 67 67 Calm 30.07 1018 10 16 0.00 0.00
1:28 pm 13:28 Mostly Cloudy 83 28.3 69 20.6 63 63 Calm 30.05 1018 9 14 0.00 0.00
1:53 pm 13:53 Mostly Cloudy 84 28.9 70 21.1 63 63 NW 9 15 30.06 1018 8 13 0.00 0.00
2:53 pm 14:53 Mostly Cloudy 84 28.9 65 18.3 53 53 N 9 15 30.06 1018 10 16 0.00 0.00
3:53 pm 15:53 Cloudy 78 25.6 69 20.6 74 74 N 3 6 30.05 1018 9 14 0.01 0.25
4:53 pm 16:53 Sunny 85 29.4 70 21.1 61 61 NNW 6 9 30.03 1017 10 16 0.00 0.00
5:53 pm 17:53 Sunny 86 30 69 20.6 57 57 VRB 3 6 30.03 1017 10 16 0.00 0.00
6:53 pm 18:53 Sunny 85 29.4 67 19.4 55 55 NNW 7 11 30.02 1017 10 16 0.00 0.00
7:53 pm 19:53 Sunny 83 28.3 69 20.6 63 63 NNE 3 6 30.02 1017 9 14 0.00 0.00
8:53 pm 20:53 Clear 79 26.1 70 21.1 74 74 Calm 30.02 1017 8 13 0.00 0.00
9:53 pm 21:53 Clear 76 24.4 69 20.6 79 79 NNW 5 7 30.04 1017 10 16 0.00 0.00
10:53 pm 22:53 Mostly Clear 76 24.4 67 19.4 74 74 NNW 6 9 30.05 1018 10 16 0.00 0.00
11:53 pm 23:53 Clear 75 23.9 66 18.9 74 74 N 3 6 30.05 1018 10 16 0.00 0.00

Powered by AerisWeather